Regional Weather Roundup
Issued by NWS Nashville, TN

Home | Current Version | Previous Version | Text Only | Print | Product List | Glossary On
Versions: 1 2 3 4 5 6 7 8 9 10 11 12 13 14 15 16 17 18 19 20 21 22 23 24 25 26 27 28 29 30 31 32 33 34 35 36 37 38 39 40 41 42 43 44 45 46 47 48 49 50
000
ASUS44 KOHX 170415
RWROHX
MIDDLE TENNESSEE HOURLY WEATHER ROUNDUP
NATIONAL WEATHER SERVICE NASHVILLE TN
1100 PM CDT TUE SEP 16 2014

NOTE: "FAIR" INDICATES FEW OR NO CLOUDS BELOW 12,000 FEET WITH
NO SIGNIFICANT WEATHER AND/OR OBSTRUCTIONS TO VISIBILITY.

* THESE REPORTS ARE NOT UNDER NWS QUALITY CONTROL AND MAY NOT
  REPORT WEATHER SUCH AS PRECIPITATION AND FOG.


TNZ005>011-023>034-057-059-062>066-078-080-170500
...NORTHERN MIDDLE TENNESSEE...

CITY           SKY/WX    TMP DP  RH WIND       PRES   REMARKS
CLARKSVILLE    CLEAR     56  52  86 NW5       30.09R
CROSSVILLE     CLEAR     61  57  87 NW3       30.09R FOG
GALLATIN         N/A     61  58  90 N5        30.08R
DICKSON        CLEAR     55  54  94 CALM      30.08S
LEBANON          N/A     57  57 100 CALM      30.06R
NASHVILLE      PTCLDY    63  56  78 NW5       30.07S
WEST NASHVILLE   N/A     59  59 100 CALM      30.08R
PORTLAND       CLEAR     55  54  94 CALM      30.08R
SMYRNA         PTCLDY    61  58  90 CALM      30.08R
SPARTA         CLOUDY    61  59  94 CALM      30.06S VSB 1/4
$$
TNZ056-058-060-061-075>077-079-093>097-170500
...SOUTHERN MIDDLE TENNESSEE...

CITY           SKY/WX    TMP DP  RH WIND       PRES   REMARKS
COLUMBIA       PTCLDY    63  63 100 CALM      30.06S
FAYETTEVILLE   CLEAR     63  63 100 N3        30.06F
LEWISBURG      MOCLDY    63  60  90 CALM      30.07R
MCMINNVILLE      N/A     61  61 100 CALM      30.07S VSB 1/4
MURFREESBORO   CLEAR     64  60  87 N3        30.06S
SHELBYVILLE    PTCLDY    64  64 100 N5        30.08R
TULLAHOMA      MOCLDY    63  61  94 CALM      30.08S
WINCHESTER     PTCLDY    64  63  94 CALM      30.07S
$$


...KEY TO REMARKS...
VSB - VISIBILITY IN MILES
WCI - WIND CHILL INDEX
HX  - HEAT INDEX



USA.gov is the U.S. government's official web portal to all federal, state and local government web resources and services.